This demonstration page uses our WeatherBlox Daily Observations layout. Learn more.

Left ArrowRight Arrow

39.92423, -83.80882

Hourly Observations for March 6, 2022

Temp ( °F °C ) Dew Point ( °F °C ) Humidity (%) Winds ( mph kmh ) Pressure ( in mb ) Visibility ( mi km ) Precip ( " mm )
12:56 am 00:56 Cloudy 66 18.9 50 10 56 56 SSW 20 31 29.91 1013 10 16 0.00 0.00
1:56 am 01:56 Cloudy 66 18.9 50 10 56 56 SSW 15 24 29.89 1012 10 16 0.00 0.00
2:25 am 02:25 Mostly Cloudy 64 18 50 10 60 60 SSW 15 24 29.87 1012 10 16 0.00 0.00
2:56 am 02:56 Cloudy 65 18.3 50 10 59 59 SSW 15 24 29.87 1011 10 16 0.00 0.00
3:56 am 03:56 Cloudy with Light Rain 63 17.2 53 11.7 70 70 SSW 15 24 29.88 1012 10 16 0.00 0.00
4:56 am 04:56 Cloudy 60 15.6 60 15.6 100 100 SSW 16 26 29.91 1013 10 16 0.00 0.00
5:56 am 05:56 Mostly Cloudy 59 15 59 15 100 100 SSW 14 22 29.92 1013 10 16 0.00 0.00
6:56 am 06:56 Cloudy 59 15 59 15 100 100 SW 12 19 29.94 1014 10 16 0.00 0.00
7:18 am 07:18 Cloudy 61 16 61 16 100 100 SSW 13 20 29.94 1014 10 16 0.00 0.00
7:39 am 07:39 Cloudy 61 16 61 16 100 100 SSW 17 28 29.94 1014 10 16 0.00 0.00
7:56 am 07:56 Cloudy 60 15.6 60 15.6 100 100 SSW 15 24 29.95 1014 10 16 0.00 0.00
8:31 am 08:31 Mostly Cloudy 63 17 61 16 94 94 SW 16 26 29.94 1014 10 16 0.00 0.00
8:56 am 08:56 Partly Cloudy 63 17.2 61 16.1 93 93 SW 17 28 29.96 1014 10 16 0.00 0.00
9:17 am 09:17 Mostly Cloudy 64 18 61 16 88 88 SW 22 35 29.93 1014 10 16 0.00 0.00
9:56 am 09:56 Cloudy 66 18.9 60 15.6 81 81 SW 20 31 29.96 1014 10 16 0.00 0.00
10:56 am 10:56 Cloudy 69 20.6 59 15 70 70 WSW 23 37 29.96 1015 10 16 0.00 0.00
11:12 am 11:12 Cloudy 70 21 61 16 73 73 SW 21 33 29.94 1014 10 16 0.00 0.00
11:56 am 11:56 Cloudy 70 21.1 59 15 68 68 SW 20 31 29.95 1014 10 16 0.00 0.00
12:56 pm 12:56 Mostly Cloudy 71 21.7 58 14.4 63 63 SW 21 33 29.95 1014 10 16 0.00 0.00
1:56 pm 13:56 Cloudy 70 21.1 59 15 68 68 WSW 18 30 29.95 1014 10 16 0.00 0.00
2:56 pm 14:56 Cloudy 71 21.7 56 13.3 59 59 W 24 39 29.94 1014 10 16 0.00 0.00
3:56 pm 15:56 Cloudy 68 20 57 13.9 68 68 W 22 35 29.97 1015 10 16 0.00 0.00
4:56 pm 16:56 Partly Cloudy 65 18.3 56 13.3 73 73 W 20 31 29.99 1016 10 16 0.00 0.00
5:56 pm 17:56 Sunny 63 17.2 55 12.8 76 76 W 12 19 30.01 1016 10 16 0.00 0.00
6:56 pm 18:56 Clear 58 14.4 52 11.1 81 81 W 7 11 30.03 1017 10 16 0.00 0.00
7:56 pm 19:56 Clear 55 12.8 49 9.4 80 80 NNW 9 15 30.04 1017 10 16 0.00 0.00
8:56 pm 20:56 Clear 51 10.6 47 8.3 86 86 N 5 7 30.01 1016 10 16 0.00 0.00
9:56 pm 21:56 Cloudy 50 10 48 8.9 93 93 Calm 29.99 1016 10 16 0.00 0.00
10:56 pm 22:56 Cloudy 50 10 49 9.4 96 96 E 7 11 29.96 1014 10 16 0.00 0.00
11:30 pm 23:30 Cloudy 52 11 48 9 88 88 ENE 7 11 29.95 1014 10 16 0.00 0.00
11:56 pm 23:56 Cloudy with Light Rain 51 10.6 49 9.4 92 92 NE 9 15 29.90 1013 10 16 0.00 0.00

Powered by AerisWeather